Regional Weather Roundup
Issued by NWS Sterling, VA

Home | Current Version | Previous Version | Text Only | Print | Product List | Glossary Off
Versions: 1 2 3 4 5 6 7 8 9 10 11 12 13 14 15 16 17 18 19 20 21 22 23 24 25 26 27

000
ASUS41 KLWX 211810
RWRLWX

REGIONAL WEATHER ROUNDUP
NATIONAL WEATHER SERVICE BALTIMORE MD/WASHINGTON DC
100 PM EST TUE NOV 21 2017

Note: "FAIR" indicates few or no clouds below 12,000 feet
with no significant weather and/or obstructions to visibility.
 TC=TEMPERATURE CELSIUS

 * =Non NWS site. Station does not report precipitation (e.g. rain,
    snow, etc.), thunder, or fog.

DCZ001-MDZ009-015-VAZ040>042-051-053>054-211900-
WASHINGTON METRO

CITY           SKY/WX    TMP DP  RH WIND       PRES   REMARKS
WASHINGTON NAT CLOUDY    60  35  39 SW18      30.06F
DULLES         PTSUNNY   57  33  40 S10       30.04F
ANDREWS AFB    CLOUDY    59  33  38 SW16G26   30.05F
FT BELVOIR     CLOUDY    60  36  40 S10       30.06F
QUANTICO       PTSUNNY   60  38  43 SW15G22   30.09F
COLLEGE PARK*  MOSUNNY   59  33  36 S7        30.06F
LEESBURG*      CLOUDY    55  34  44 S8        30.05F
MANASSAS*      CLOUDY    58  35  42 SW10G18   30.06F
GAITHERSBURG*  CLOUDY    57  31  37 S12G22    30.05F

$$

MDZ006>007-011-014-211900-
BALTIMORE METRO

CITY           SKY/WX    TMP DP  RH WIND       PRES   REMARKS
BWI AIRPORT    CLOUDY    60  33  36 SW13G18   30.04F
MD SCIENCE CTR   N/A     60  30  32 MISG      30.08F
MARTIN STATE   PTSUNNY   55  41  58 SE10      30.08F
ANNAPOLIS      CLOUDY    60  36  40 SW8G28    30.06F
FORT MEADE*    MOSUNNY   61  32  33 SW12G25   30.08F

$$

MDZ012-015-019>023-211900-
MARYLAND EASTERN SHORE

CITY           SKY/WX    TMP DP  RH WIND       PRES   REMARKS
OCEAN CITY     MOSUNNY   55  39  54 SW9G20    30.16F
SALISBURY      CLOUDY    58  36  43 S10       30.13F
CAMBRIDGE*     SUNNY     55  36  47 S12G20    30.11F
EASTON*        PTSUNNY   57  32  38 S14G20    30.13F

$$

MDZ017>025-211900-
SOUTHERN MARYLAND

CITY           SKY/WX    TMP DP  RH WIND       PRES   REMARKS
PATUXENT RIVER CLOUDY    59  37  44 S12       30.10F
ST INIGOES     CLOUDY    59  40  49 S10       30.11F
LEONARDTOWN*   CLOUDY    55  36  47 SW12G21   30.11F

$$

MDZ003>005-211900-
NORTH CENTRAL MARYLAND

CITY           SKY/WX    TMP DP  RH WIND       PRES   REMARKS
FREDERICK*     SUNNY     55  25  30 SW12      30.07F
HAGERSTOWN APT MOSUNNY   52  28  39 S13       30.01F
WESTMINSTER*   CLOUDY    55  30  38 S8G17     30.04S

$$

MDZ501>502-211900-
WESTERN MARYLAND

CITY           SKY/WX    TMP DP  RH WIND       PRES   REMARKS
OAKLAND*       SUNNY     48  23  37 SW14G23   29.93F
CUMBERLAND*    SUNNY     52  30  43 SE3       30.02F

$$

VAZ025>031-211900-
SHENANDOAH VALLEY

CITY           SKY/WX    TMP DP  RH WIND       PRES   REMARKS
WINCHESTER*    PTSUNNY   54  30  40 SW8       30.02F
FRONT ROYAL*   CLOUDY    59  28  31 SW10G21   30.01F
LURAY*         MOSUNNY   59  28  31 S14G22    30.02F
NEW MARKET*    CLOUDY    58  25  28 S12G17    30.02F
STAUNTON*      CLOUDY    58  34  40 SW13      30.06F
WAYNESBORO*    MOSUNNY   57  39  50 SW12G21   30.04F

$$

WVZ021-048>050-054>055-211900-
EASTERN WEST VIRGINIA PANHANDLE

CITY           SKY/WX    TMP DP  RH WIND       PRES   REMARKS
MARTINSBURG    PTSUNNY   55  27  34 S6        30.00F
PETERSBURG*    CLOUDY    56  26  31 S9        29.98F

$$

VAZ036>039-050-211900-
CENTRAL FOOTHILLS

CITY           SKY/WX    TMP DP  RH WIND       PRES   REMARKS
CHARLOTTESVILL MOSUNNY   56  34  43 S15       30.06F
CULPEPER*      MOSUNNY   59  32  36 SW15      30.07F
ORANGE*        CLOUDY    57  36  44 SW9G17    30.07F
GORDONSVILLE*  MOSUNNY   56  37  47 SW13G18   30.07F
WARRENTON*     NOT AVBL

$$

VAZ055>057-211900-
NORTH AND CENTRAL PIEDMONT

CITY           SKY/WX    TMP DP  RH WIND       PRES   REMARKS
FREDERICKSBRG* PTSUNNY   60  40  47 SW9       30.08F
STAFFORD*      MOSUNNY   59  36  42 SW14G20   30.12F

$$

NCZ024-NYZ072-PAZ021-071-VAZ022-071-211900-
OTHER REGIONAL OBSERVATIONS

CITY           SKY/WX    TMP DP  RH WIND       PRES   REMARKS
NEW YORK CITY  SUNNY     56  32  40 VRB6      30.07F
PHILADELPHIA   PTSUNNY   57  29  34 S15G25    30.08F
PITTSBURGH     PTSUNNY   53  28  38 SW15G28   29.91F
ROANOKE        PTSUNNY   53  35  50 CALM      30.10F
RICHMOND       CLOUDY    60  38  43 S13       30.13F
RALEIGH        CLOUDY    63  44  50 S5        30.14F

$$

ANZ530>537-211900-
MARINE OBSERVATIONS

STATION/POSITION TIME  TEMP    WIND        PRES
                       AIR SEA DIR/SP/G
                 (UTC) (F)     (DEG/KT/KT) (MB)
THOMAS PT LIGHT  1800   56 52  190/ 19/ 21   N/A
BALT KEY BRIDGE  1742   58     190/  7/ 10 1017.7F
COVE POINT       1742   57     210/ 18/ 21 1020.0F
LEWISETTA        1742   59 50  230/ 12/ 17 1019.9F
SOLOMONS ISLAND  1736   56 53  210/ 14/ 18 1019.3F
PINEY POINT      1742          230/ 12/ 14   N/A

$$





USA.gov is the U.S. government's official web portal to all federal, state and local government web resources and services.